(376117) = 2011 AB

Discovered at Mount Lemmon on 2010-12-05 by Mt. Lemmon Survey.

Orbit

Orbit type: Main Belt

Note: WebGL enabled browser required.

epoch2024-03-31.0
epoch JD2460400.5
perihelion date2022-01-20.10588
perihelion JD2459599.60588
argument of perihelion (°)317.40471
ascending node (°)127.56067
inclination (°)5.39327
eccentricity0.1669640
perihelion distance (AU)2.0140209
Tisserand w.r.t. Jupiter3.5
ΔV w.r.t. Earth (km/sec)9.0
semimajor axis (AU)2.4176877
mean anomaly (°)209.98035
mean daily motion (°/day)0.26218240
aphelion distance (AU)2.821
period (years)3.76
P-vector [x]0.08538237
P-vector [y]0.93757103
P-vector [z]0.33715044
Q-vector [x]-0.99355847
Q-vector [y]0.05481566
Q-vector [z]0.09918066
absolute magnitude17.85
phase slope0.15
uncertainty0
referenceMPEC 2024-E152
observations used228
oppositions11
arc length (days)9977
first opposition used1995
last opposition used2023
residual rms (arc-secs)0.69
perturbers coarse indicatorM-v
perturbers precise indicator003Ek
first observation date used1995-12-25.0
last observation date used2023-04-19.0
computer nameMPCLINUX
Minimum Orbit Intersection Distances (in AU)
for orbit epoch: 2460400.5, reference: E2024-EF2
Mercury1.70936
Venus1.29695
Earth1.03451
Mars0.43753
Jupiter2.39189
Saturn7.02618
Uranus16.0344
Neptune27.4908

Observations

223 total observations over interval: 1995 12 25.46599 – 2023 04 19.377978
These data are available for download (format description).

Date (UT) J2000 RA J2000 Dec Magn Location Ref
1995 12 25.46599 09 19 42.35 +14 02 31.5   691 – Steward Observatory, Kitt Peak-Spacewatch MPS 368641
1995 12 25.48736 09 19 42.20 +14 02 36.1 21.3 V 691 – Steward Observatory, Kitt Peak-Spacewatch MPS 368641
1995 12 25.50887 09 19 41.99 +14 02 39.8   691 – Steward Observatory, Kitt Peak-Spacewatch MPS 368641
2002 10 29.221630 01 42 01.711 +00 03 22.51 20.69 V 645 – Apache Point-Sloan Digital Sky Survey MPS 368641
2002 10 29.225102 01 42 01.521 +00 03 21.58 21.57   645 – Apache Point-Sloan Digital Sky Survey MPS 368641
2007 02 17.21780 04 49 27.44 +19 15 50.7 20.8 V G96 – Mt. Lemmon Survey MPS 368641
2007 02 17.22324 04 49 27.76 +19 15 53.1 21.6 V G96 – Mt. Lemmon Survey MPS 368641
2007 02 17.22869 04 49 28.12 +19 15 54.5 21.9 V G96 – Mt. Lemmon Survey MPS 368641
2007 02 17.23411 04 49 28.45 +19 15 56.7 21.9 V G96 – Mt. Lemmon Survey MPS 368641
2008 05 29.24042 14 44 06.61 -07 30 17.4 21.3 V G96 – Mt. Lemmon Survey MPS 368641
2008 05 29.24701 14 44 06.32 -07 30 16.7 21.6 V G96 – Mt. Lemmon Survey MPS 368641
2008 05 29.25354 14 44 06.00 -07 30 17.1 21.6 V G96 – Mt. Lemmon Survey MPS 368641
2008 05 29.26017 14 44 05.71 -07 30 16.0 21.9 V G96 – Mt. Lemmon Survey MPS 368641
2010 12 05.46424 08 48 35.06 +14 42 32.9 20.8 V G96 – Mt. Lemmon Survey MPS 365806
2010 12 05.47173 08 48 35.20 +14 42 33.0 20.6 V G96 – Mt. Lemmon Survey MPS 365806
2010 12 05.47933 08 48 35.38 +14 42 33.4 20.7 V G96 – Mt. Lemmon Survey MPS 365806
2010 12 05.48683 08 48 35.49 +14 42 33.3 21.3 V G96 – Mt. Lemmon Survey MPS 365806
2011 01 02.27387 08 45 15.55 +16 03 52.4 19.7 R H36 – Sandlot Observatory, Scranton MPS 363422
2011 01 02.30089 08 45 14.58 +16 04 01.7 19.8 R H36 – Sandlot Observatory, Scranton MPS 363422
2011 01 02.31891 08 45 13.88 +16 04 07.6 19.9 R H36 – Sandlot Observatory, Scranton MPS 363422
2011 01 03.36925 08 44 34.84 +16 10 02.3 20.0 R H36 – Sandlot Observatory, Scranton MPS 363422
2011 01 03.39634 08 44 33.75 +16 10 11.3 20.1 R H36 – Sandlot Observatory, Scranton MPS 363422
2011 01 03.40533 08 44 33.40 +16 10 14.7 20.2 R H36 – Sandlot Observatory, Scranton MPS 363422
2011 01 04.31359 08 43 58.35 +16 15 30.0 20.4 R H36 – Sandlot Observatory, Scranton MPS 363422
2011 01 04.32568 08 43 57.80 +16 15 34.0 20.2 R H36 – Sandlot Observatory, Scranton MPS 363422
2011 01 04.33770 08 43 57.30 +16 15 38.0 20.3 R H36 – Sandlot Observatory, Scranton MPS 363422
2011 01 05.37097 08 43 15.28 +16 21 46.0 20.5 R H36 – Sandlot Observatory, Scranton MPS 363422
2011 01 05.37552 08 43 15.10 +16 21 47.8 20.2 R H36 – Sandlot Observatory, Scranton MPS 363422
2011 01 05.38015 08 43 14.91 +16 21 49.6 20.4 R H36 – Sandlot Observatory, Scranton MPS 363422
2011 01 05.38468 08 43 14.69 +16 21 50.7 20.3 R H36 – Sandlot Observatory, Scranton MPS 363422
2011 01 05.38918 08 43 14.46 +16 21 51.9 20.4 R H36 – Sandlot Observatory, Scranton MPS 363422
2011 01 06.35284 08 42 33.83 +16 27 44.0 20.2 R H36 – Sandlot Observatory, Scranton MPS 363422
2011 01 06.35583 08 42 33.67 +16 27 44.8 20.0 R H36 – Sandlot Observatory, Scranton MPS 363422
2011 01 09.26692 08 40 21.96 +16 46 12.1 20.1 V 691 – Steward Observatory, Kitt Peak-Spacewatch MPS 365806
2011 01 09.28466 08 40 21.08 +16 46 19.1 20.3 V 691 – Steward Observatory, Kitt Peak-Spacewatch MPS 365806
2011 01 09.30239 08 40 20.18 +16 46 26.4 20.3 V 691 – Steward Observatory, Kitt Peak-Spacewatch MPS 365806
2011 01 13.24922 08 37 02.62 +17 12 56.6 19.9 V 691 – Steward Observatory, Kitt Peak-Spacewatch MPS 365806
2011 01 13.27038 08 37 01.47 +17 13 05.7 20.2 V 691 – Steward Observatory, Kitt Peak-Spacewatch MPS 365806
2011 01 13.28807 08 37 00.49 +17 13 13.4 20.2 V 691 – Steward Observatory, Kitt Peak-Spacewatch MPS 365806
2011 01 23.37597 08 27 31.64 +18 25 20.9 19.7 V G96 – Mt. Lemmon Survey MPS 367233
2011 01 23.38413 08 27 31.17 +18 25 24.3 19.7 V G96 – Mt. Lemmon Survey MPS 367233
2011 01 23.39218 08 27 30.67 +18 25 27.9 19.8 V G96 – Mt. Lemmon Survey MPS 367233
2011 01 23.40026 08 27 30.16 +18 25 31.2 19.5 V G96 – Mt. Lemmon Survey MPS 367233
2011 01 24.43943 08 26 29.07 +18 33 02.8 19.7 V 703 – Catalina Sky Survey MPS 367233
2011 01 24.44652 08 26 28.64 +18 33 04.9 19.2 V 703 – Catalina Sky Survey MPS 367233
2011 01 24.45358 08 26 28.14 +18 33 09.6 19.6 V 703 – Catalina Sky Survey MPS 367233
2011 01 24.46065 08 26 27.74 +18 33 11.8 20.0 V 703 – Catalina Sky Survey MPS 367233
2011 02 04.18838 08 16 18.84 +19 47 55.7 19.8 V 703 – Catalina Sky Survey MPS 368641
2011 02 04.19661 08 16 18.44 +19 47 58.9 20.6 V 703 – Catalina Sky Survey MPS 368641
2011 02 04.20491 08 16 17.94 +19 48 02.2 20.1 V 703 – Catalina Sky Survey MPS 368641
2011 02 04.21314 08 16 17.50 +19 48 05.4 20.1 V 703 – Catalina Sky Survey MPS 368641
2011 02 10.16418 08 11 24.39 +20 25 00.6 20.2 V G96 – Mt. Lemmon Survey MPS 369660
2011 02 10.17115 08 11 24.07 +20 25 03.0 20.1 V G96 – Mt. Lemmon Survey MPS 369660
2011 02 10.17815 08 11 23.74 +20 25 05.6 19.9 V G96 – Mt. Lemmon Survey MPS 369660
2011 02 10.18521 08 11 23.38 +20 25 08.0 20.2 V G96 – Mt. Lemmon Survey MPS 369660
2011 02 26.11689 08 03 14.50 +21 39 45.9 20.6 V G96 – Mt. Lemmon Survey MPS 372132
2011 02 26.12211 08 03 14.40 +21 39 47.1 20.8 V G96 – Mt. Lemmon Survey MPS 372132
2011 02 26.12738 08 03 14.32 +21 39 48.5 20.3 V G96 – Mt. Lemmon Survey MPS 372132
2011 02 26.13264 08 03 14.22 +21 39 49.8 20.7 V G96 – Mt. Lemmon Survey MPS 372132
2011 03 10.15928 08 02 49.59 +22 10 41.7 21.1 V G96 – Mt. Lemmon Survey MPS 373546
2011 03 10.17784 08 02 49.74 +22 10 43.7 21.0 V G96 – Mt. Lemmon Survey MPS 373546
2011 03 10.18704 08 02 49.84 +22 10 44.6 20.7 V G96 – Mt. Lemmon Survey MPS 373546
2013 09 01.42575 23 15 46.062 -10 31 32.70 20.8 w F51 – Pan-STARRS 1, Haleakala MPS 475001
2013 09 01.43997 23 15 45.299 -10 31 39.53 20.9 w F51 – Pan-STARRS 1, Haleakala MPS 475001
2013 09 01.45343 23 15 44.587 -10 31 46.06 20.9 w F51 – Pan-STARRS 1, Haleakala MPS 475001
2013 09 01.46687 23 15 43.869 -10 31 52.43 20.8 w F51 – Pan-STARRS 1, Haleakala MPS 475001
2013 09 22.40103 22 57 28.219 -13 04 55.32 20.6 i F51 – Pan-STARRS 1, Haleakala MPS 477776
2013 09 22.40919 22 57 27.805 -13 04 58.29 20.5 i F51 – Pan-STARRS 1, Haleakala MPS 477776
2013 10 06.31738 22 47 55.685 -14 10 29.47 21.1 w F51 – Pan-STARRS 1, Haleakala MPS 480209
2013 10 06.33163 22 47 55.197 -14 10 32.19 21.3 w F51 – Pan-STARRS 1, Haleakala MPS 480209
2013 10 06.34588 22 47 54.715 -14 10 34.89 21.2 w F51 – Pan-STARRS 1, Haleakala MPS 480209
2015 01 19.52597 11 37 29.638 +05 58 59.80 21.2 w F51 – Pan-STARRS 1, Haleakala MPS 567278
2015 01 19.55302 11 37 29.773 +05 59 04.97 21.2 w F51 – Pan-STARRS 1, Haleakala MPS 567278
2015 01 19.56661 11 37 29.846 +05 59 07.79 21.1 w F51 – Pan-STARRS 1, Haleakala MPS 567278
2015 01 31.52037 11 36 41.586 +06 52 36.97 20.8 i F51 – Pan-STARRS 1, Haleakala MPS 570921
2015 01 31.53213 11 36 41.380 +06 52 41.09 20.4 i F51 – Pan-STARRS 1, Haleakala MPS 570921
2015 01 31.54390 11 36 41.187 +06 52 45.11 20.8 i F51 – Pan-STARRS 1, Haleakala MPS 570921
2015 02 17.53962 11 28 08.755 +08 53 59.20 20.6 w F51 – Pan-STARRS 1, Haleakala MPS 583126
2015 02 17.55130 11 28 08.218 +08 54 05.03 20.8 w F51 – Pan-STARRS 1, Haleakala MPS 583126
2015 02 17.56315 11 28 07.673 +08 54 10.74 20.8 w F51 – Pan-STARRS 1, Haleakala MPS 583126
2015 02 17.57505 11 28 07.137 +08 54 16.62 20.9 w F51 – Pan-STARRS 1, Haleakala MPS 583126
2015 02 26.27141 11 21 09.34 +10 07 23.0 20.5 V 691 – Steward Observatory, Kitt Peak-Spacewatch MPS 585580
2015 02 26.29055 11 21 08.31 +10 07 32.7 20.3 V 691 – Steward Observatory, Kitt Peak-Spacewatch MPS 585580
2015 02 26.30972 11 21 07.25 +10 07 42.1 20.4 V 691 – Steward Observatory, Kitt Peak-Spacewatch MPS 585580
2015 03 09.39798 11 11 09.25 +11 38 12.9 20.1 V G96 – Mt. Lemmon Survey MPS 587011
2015 03 09.40527 11 11 08.86 +11 38 16.5 20.3 V G96 – Mt. Lemmon Survey MPS 587011
2015 03 09.41257 11 11 08.47 +11 38 19.4 20.1 V G96 – Mt. Lemmon Survey MPS 587011
2015 03 09.41987 11 11 08.06 +11 38 22.5 20.2 V G96 – Mt. Lemmon Survey MPS 587011
2015 03 24.31212 10 58 46.05 +13 13 56.7 20.3 r G45 – Space Surveillance Telescope, Atom Site MPS 600561
2015 03 24.32085 10 58 45.70 +13 14 00.1 20.5 r G45 – Space Surveillance Telescope, Atom Site MPS 600561
2015 03 24.33085 10 58 45.25 +13 14 02.8 20.8 r G45 – Space Surveillance Telescope, Atom Site MPS 600561
2015 03 24.33810 10 58 44.95 +13 14 04.3 21.0 r G45 – Space Surveillance Telescope, Atom Site MPS 600561
